Weather History for PHTO - September, 2014

Change the Weather History Date:

Wednesday, September 10, 2014

  Actual Average Record
Temperature  
Mean Temperature 78 °F 76 °F  
Max Temperature 85 °F 83 °F 90 °F (1992)
Min Temperature 70 °F 69 °F 62 °F (1955)
Degree Days  
Heating Degree Days 0 0  
Month to date heating degree days 0 0  
Since 1 July heating degree days 0 0  
Cooling Degree Days 13 11  
Month to date cooling degree days 138 110  
Year to date cooling degree days 2415 2182  
Growing Degree Days 27 (Base 50)    
Moisture  
Dew Point 67 °F    
Average Humidity 71    
Maximum Humidity 84    
Minimum Humidity 58    
Precipitation  
Precipitation T in 0.32 in 1.30 in (1987)
Month to date precipitation 0.92 3.13  
Year to date precipitation 82.03 83.07  
Snow  
Snow 0.00 in - - ()
Month to date snowfall 0.0  
Since 1 July snowfall 0.0  
Since 1 September snowfall 0.0  
Snow Depth 0.00 in    
Sea Level Pressure  
Sea Level Pressure 30.00 in    
Wind  
Wind Speed 5 mph (SSW)    
Max Wind Speed 13 mph    
Max Gust Speed 16 mph    
Visibility 10 miles    
Events Rain    
T = Trace of Precipitation, MM = Missing Value Source: NWS Daily Summary

Daily Weather History Graph

Daily Weather History Graph

Search for Another Location

Airport or City:

Trip Planner

Search our weather history database for the weather conditions in past years. The results will help you decide how hot, cold, wet, or windy it might be!

Date:

Astronomy

Sep. 10, 2014 Rise Set
Actual Time 6:06 AM HST 6:27 PM HST
Civil Twilight 5:44 AM HST 6:49 PM HST
Nautical Twilight 5:18 AM HST 7:14 PM HST
Astronomical Twilight 4:52 AM HST 7:40 PM HST
Moon 7:56 PM HST (9/10) 7:46 AM HST (9/10)
Length of Visible Light 13h 04m
Length of Day
12h 20m
Waning Gibbous, 95% of the Moon is Illuminated
Sep 10
Waning Gibbous
Sep 15
Last Quarter
Sep 23
New
Oct 1
First Quarter
Oct 8
Full

Hourly Weather History & Observations

Time (HST) Temp. Heat Index Dew Point Humidity Pressure Visibility Wind Dir Wind Speed Gust Speed Precip Events Conditions
12:53 AM 73.0 °F - 66.0 °F 79% 30.01 in 10.0 mi Calm Calm - N/A   Scattered Clouds
1:53 AM 73.0 °F - 64.0 °F 73% 30.01 in 10.0 mi SW 3.5 mph - N/A   Mostly Cloudy
2:53 AM 71.1 °F - 64.0 °F 78% 29.99 in 10.0 mi SW 3.5 mph - N/A   Scattered Clouds
3:53 AM 71.1 °F - 64.0 °F 78% 29.99 in 10.0 mi WSW 8.1 mph - N/A   Scattered Clouds
4:53 AM 71.1 °F - 62.1 °F 73% 29.99 in 10.0 mi WSW 6.9 mph - N/A   Scattered Clouds
5:53 AM 71.1 °F - 62.1 °F 73% 30.01 in 10.0 mi SW 6.9 mph - N/A   Scattered Clouds
6:53 AM 72.0 °F - 62.1 °F 71% 30.02 in 10.0 mi SW 5.8 mph - N/A   Mostly Cloudy
7:53 AM 75.0 °F - 64.9 °F 71% 30.03 in 10.0 mi WSW 4.6 mph - N/A   Mostly Cloudy
8:53 AM 80.1 °F 82.7 °F 68.0 °F 67% 30.04 in 10.0 mi SSE 3.5 mph - N/A   Mostly Cloudy
9:53 AM 80.1 °F 83.2 °F 70.0 °F 71% 30.04 in 10.0 mi ESE 4.6 mph - N/A   Mostly Cloudy
10:53 AM 80.1 °F 83.2 °F 70.0 °F 71% 30.04 in 10.0 mi SE 10.4 mph - N/A   Mostly Cloudy
11:53 AM 82.0 °F 85.9 °F 70.0 °F 67% 30.02 in 10.0 mi SE 8.1 mph - N/A   Overcast
12:53 PM 82.9 °F 85.4 °F 66.9 °F 58% 30.00 in 10.0 mi South 4.6 mph - N/A   Mostly Cloudy
1:53 PM 84.0 °F 87.0 °F 68.0 °F 58% 29.97 in 10.0 mi East 6.9 mph - N/A   Mostly Cloudy
2:53 PM 82.9 °F 85.4 °F 66.9 °F 58% 29.95 in 10.0 mi SE 8.1 mph - N/A   Overcast
3:53 PM 82.0 °F 85.5 °F 69.1 °F 65% 29.95 in 10.0 mi ESE 6.9 mph - N/A   Overcast
4:53 PM 81.0 °F 84.1 °F 69.1 °F 67% 29.95 in 10.0 mi East 5.8 mph - N/A   Overcast
5:53 PM 80.1 °F 83.2 °F 70.0 °F 71% 29.97 in 10.0 mi Calm Calm - N/A   Overcast
6:53 PM 79.0 °F - 70.0 °F 74% 29.98 in 10.0 mi Calm Calm - N/A   Overcast
7:53 PM 77.0 °F - 69.1 °F 76% 30.01 in 10.0 mi WSW 4.6 mph - 0.00 in   Overcast
8:09 PM 77.0 °F - 69.1 °F 76% 30.01 in 10.0 mi SW 4.6 mph - N/A   Overcast
8:16 PM 77.0 °F - 69.1 °F 76% 30.02 in 10.0 mi WSW 5.8 mph - N/A   Overcast
8:53 PM 77.0 °F - 69.1 °F 76% 30.03 in 10.0 mi Calm Calm - 0.00 in Rain Light Rain
9:53 PM 75.0 °F - 69.1 °F 82% 30.03 in 10.0 mi SW 4.6 mph - 0.00 in   Overcast
10:53 PM 73.9 °F - 68.0 °F 82% 30.03 in 10.0 mi WSW 4.6 mph - N/A   Partly Cloudy
11:53 PM 73.0 °F - 66.9 °F 81% 30.02 in 10.0 mi WSW 4.6 mph - N/A   Clear